This is the latest recevied weather packets stored in our database for station/object XE2B-20. If no packets are shown the sender has not sent any weather packets the latest 10 day(s).
| Time | Temp. | Humidity | Pressure | Rain* | Wind** | Luminosity | Snow |
|---|---|---|---|---|---|---|---|
| 1777814770 | 19.44° C | 24% | 807.8 hPa | - | - | - | - |
| 1777813262 | 16.67° C | 24% | 807.3 hPa | - | - | - | - |
| 1777811783 | 11.67° C | 29% | 807 hPa | - | - | - | - |
| 1777810262 | 11.11° C | 29% | 806.8 hPa | - | - | - | - |
| 1777808764 | 11.67° C | 28% | 806.4 hPa | - | - | - | - |
| 1777807266 | 11.67° C | 28% | 806.4 hPa | - | - | - | - |
| 1777805768 | 12.22° C | 26% | 806.3 hPa | - | - | - | - |
| 1777804272 | 12.22° C | 26% | 806.2 hPa | - | - | - | - |
| 1777802775 | 12.22° C | 25% | 806.3 hPa | - | - | - | - |
| 1777801276 | 12.78° C | 24% | 806.3 hPa | - | - | - | - |
| 1777799780 | 13.89° C | 23% | 806.1 hPa | - | - | - | - |
| 1777798669 | 14.44° C | 22% | 806.1 hPa | - | - | - | - |
| 1777797164 | 15.56° C | 21% | 805.8 hPa | - | - | - | - |
| 1777795665 | 17.22° C | 21% | 805.9 hPa | - | - | - | - |
| 1777794167 | 20° C | 19% | 806.1 hPa | - | - | - | - |
| 1777792670 | 20.56° C | 18% | 805.7 hPa | - | - | - | - |
| 1777791171 | 21.11° C | 18% | 805.4 hPa | - | - | - | - |
| 1777789672 | 21.11° C | 17% | 805.2 hPa | - | - | - | - |
| 1777788172 | 21.67° C | 17% | 805.3 hPa | - | - | - | - |
| 1777786674 | 21.67° C | 17% | 805.7 hPa | - | - | - | - |
| 1777785174 | 21.67° C | 17% | 805.6 hPa | - | - | - | - |
| 1777783675 | 22.22° C | 17% | 805.3 hPa | - | - | - | - |
| 1777782177 | 22.22° C | 16% | 805.3 hPa | - | - | - | - |
| 1777780677 | 22.78° C | 16% | 804.8 hPa | - | - | - | - |
| 1777779179 | 23.33° C | 16% | 804.6 hPa | - | - | - | - |
* Rain since midnight (hover to see other rain measurements)
** Current wind speed in m/s (hover to see current wind gust speed)